Time,TemperatureF,DewpointF,PressureIn,WindDirection,WindDirectionDegrees,WindSpeedMPH,WindSpeedGustMPH,Humidity,HourlyPrecipIn,Conditions,Clouds,dailyrainin,SoftwareType,DateUTC
2013-05-01 00:03:00,57.0,55.0,30.09,NNW,343,0.0,0.0,94,0.00,,,0.00,,2013-05-01 04:03:00,
2013-05-01 00:12:00,57.0,55.0,30.09,NNW,343,0.0,0.0,94,0.00,,,0.00,,2013-05-01 04:12:00,
2013-05-01 00:22:00,57.0,55.0,30.09,NNW,347,0.0,1.0,93,0.00,,,0.00,,2013-05-01 04:22:00,
2013-05-01 00:32:00,57.0,55.0,30.09,NNW,347,0.0,0.0,93,0.00,,,0.00,,2013-05-01 04:32:00,
2013-05-01 00:43:00,57.0,55.0,30.09,NNW,347,0.0,0.0,93,0.00,,,0.00,,2013-05-01 04:43:00,
2013-05-01 00:52:00,57.0,55.0,30.09,North,10,0.0,2.0,94,0.00,,,0.00,,2013-05-01 04:52:00,
2013-05-01 01:02:00,58.0,56.0,30.09,NE,53,0.0,5.0,93,0.00,,,0.00,,2013-05-01 05:02:00,
2013-05-01 01:11:00,58.0,56.0,30.09,NE,53,0.0,5.0,93,0.00,,,0.00,,2013-05-01 05:11:00,
2013-05-01 01:21:00,58.0,56.0,30.09,ENE,72,0.0,0.0,92,0.00,,,0.00,,2013-05-01 05:21:00,
2013-05-01 01:32:00,58.0,55.0,30.09,ENE,64,0.0,9.0,90,0.00,,,0.00,,2013-05-01 05:32:00,
2013-05-01 01:42:00,58.0,55.0,30.09,ENE,64,0.0,9.0,90,0.00,,,0.00,,2013-05-01 05:42:00,
2013-05-01 01:52:00,59.0,56.0,30.09,West,275,3.0,7.0,89,0.00,,,0.00,,2013-05-01 05:52:00,
2013-05-01 02:02:00,58.0,55.0,30.08,NNW,344,2.0,6.0,89,0.00,,,0.00,,2013-05-01 06:02:00,
2013-05-01 02:12:00,58.0,55.0,30.08,NNW,344,2.0,6.0,89,0.00,,,0.00,,2013-05-01 06:12:00,
2013-05-01 02:22:00,59.0,55.0,30.08,North,349,0.0,7.0,87,0.00,,,0.00,,2013-05-01 06:22:00,
2013-05-01 02:32:00,59.0,55.0,30.08,NE,45,0.0,7.0,87,0.00,,,0.00,,2013-05-01 06:32:00,
2013-05-01 02:42:00,59.0,55.0,30.08,NE,45,0.0,7.0,87,0.00,,,0.00,,2013-05-01 06:42:00,
2013-05-01 02:52:00,59.0,55.0,30.08,North,5,0.0,6.0,88,0.00,,,0.00,,2013-05-01 06:52:00,
2013-05-01 03:01:00,59.0,55.0,30.08,ENE,66,0.0,4.0,88,0.00,,,0.00,,2013-05-01 07:01:00,
2013-05-01 03:11:00,59.0,55.0,30.08,ENE,66,0.0,4.0,88,0.00,,,0.00,,2013-05-01 07:11:00,
2013-05-01 03:21:00,59.0,55.0,30.08,NE,43,0.0,1.0,88,0.00,,,0.00,,2013-05-01 07:21:00,
2013-05-01 03:32:00,59.0,56.0,30.08,NNW,327,0.0,3.0,89,0.00,,,0.00,,2013-05-01 07:32:00,
2013-05-01 03:42:00,59.0,56.0,30.08,NNW,327,0.0,3.0,89,0.00,,,0.00,,2013-05-01 07:42:00,
2013-05-01 03:52:00,58.0,55.0,30.07,ESE,122,0.0,7.0,89,0.00,,,0.00,,2013-05-01 07:52:00,
2013-05-01 04:02:00,58.0,55.0,30.07,NE,44,0.0,6.0,89,0.00,,,0.00,,2013-05-01 08:02:00,
2013-05-01 04:12:00,58.0,55.0,30.07,NE,44,0.0,6.0,89,0.00,,,0.00,,2013-05-01 08:12:00,
2013-05-01 04:22:00,58.0,55.0,30.08,North,5,0.0,1.0,89,0.00,,,0.00,,2013-05-01 08:22:00,
2013-05-01 04:32:00,58.0,55.0,30.07,NE,37,0.0,2.0,89,0.00,,,0.00,,2013-05-01 08:32:00,
2013-05-01 04:42:00,58.0,55.0,30.07,NE,37,0.0,2.0,89,0.00,,,0.00,,2013-05-01 08:42:00,
2013-05-01 04:53:00,58.0,55.0,30.07,NNE,31,2.0,11.0,89,0.00,,,0.00,,2013-05-01 08:53:00,
2013-05-01 05:01:00,58.0,55.0,30.07,NE,37,2.0,6.0,89,0.00,,,0.00,,2013-05-01 09:01:00,
2013-05-01 05:12:00,58.0,55.0,30.07,NE,37,2.0,6.0,89,0.00,,,0.00,,2013-05-01 09:12:00,
2013-05-01 05:21:00,58.0,55.0,30.08,ENE,64,0.0,6.0,89,0.00,,,0.00,,2013-05-01 09:21:00,
2013-05-01 05:33:00,58.0,55.0,30.08,NNE,27,0.0,10.0,89,0.00,,,0.00,,2013-05-01 09:33:00,
2013-05-01 05:42:00,58.0,55.0,30.08,NNE,27,0.0,10.0,89,0.00,,,0.00,,2013-05-01 09:42:00,
2013-05-01 05:53:00,58.0,55.0,30.09,North,354,2.0,10.0,89,0.00,,,0.00,,2013-05-01 09:53:00,
2013-05-01 06:03:00,58.0,55.0,30.09,NE,37,0.0,6.0,89,0.00,,,0.00,,2013-05-01 10:03:00,
2013-05-01 06:12:00,58.0,55.0,30.09,NE,37,0.0,6.0,89,0.00,,,0.00,,2013-05-01 10:12:00,
2013-05-01 06:22:00,58.0,55.0,30.09,NE,34,0.0,5.0,90,0.00,,,0.00,,2013-05-01 10:22:00,
2013-05-01 06:33:00,58.0,55.0,30.09,NNW,340,1.0,8.0,90,0.00,,,0.00,,2013-05-01 10:33:00,
2013-05-01 06:42:00,58.0,55.0,30.09,NNW,340,1.0,8.0,90,0.00,,,0.00,,2013-05-01 10:42:00,
2013-05-01 06:53:00,58.0,55.0,30.10,NNE,14,0.0,7.0,90,0.00,,,0.00,,2013-05-01 10:53:00,
2013-05-01 07:02:00,58.0,55.0,30.11,NE,37,1.0,5.0,90,0.00,,,0.00,,2013-05-01 11:02:00,
2013-05-01 07:11:00,58.0,55.0,30.11,NE,37,1.0,5.0,90,0.00,,,0.00,,2013-05-01 11:11:00,
2013-05-01 07:22:00,59.0,56.0,30.11,NE,37,2.0,7.0,90,0.00,,,0.00,,2013-05-01 11:22:00,
2013-05-01 07:32:00,59.0,56.0,30.12,NNE,14,2.0,5.0,90,0.00,,,0.00,,2013-05-01 11:32:00,
2013-05-01 07:42:00,59.0,56.0,30.12,NNE,14,2.0,5.0,90,0.00,,,0.00,,2013-05-01 11:42:00,
2013-05-01 07:52:00,59.0,56.0,30.12,ENE,59,0.0,7.0,90,0.00,,,0.00,,2013-05-01 11:52:00,
2013-05-01 08:01:00,59.0,56.0,30.12,East,79,1.0,6.0,91,0.00,,,0.00,,2013-05-01 12:01:00,
2013-05-01 08:11:00,59.0,56.0,30.12,North,5,1.0,7.0,90,0.00,,,0.00,,2013-05-01 12:11:00,
2013-05-01 08:21:00,59.0,56.0,30.12,North,5,1.0,7.0,90,0.00,,,0.00,,2013-05-01 12:21:00,
2013-05-01 08:32:00,60.0,57.0,30.13,NE,50,2.0,6.0,89,0.00,,,0.00,,2013-05-01 12:32:00,
2013-05-01 08:41:00,60.0,57.0,30.13,NE,50,2.0,6.0,89,0.00,,,0.00,,2013-05-01 12:41:00,
2013-05-01 08:52:00,60.0,57.0,30.14,NNE,31,1.0,5.0,90,0.00,,,0.00,,2013-05-01 12:52:00,
2013-05-01 09:01:00,60.0,57.0,30.14,NE,37,0.0,3.0,90,0.00,,,0.00,,2013-05-01 13:01:00,
2013-05-01 09:11:00,60.0,57.0,30.14,NE,37,0.0,3.0,90,0.00,,,0.00,,2013-05-01 13:11:00,
2013-05-01 09:22:00,60.0,57.0,30.14,NW,326,0.0,4.0,91,0.00,,,0.00,,2013-05-01 13:22:00,
2013-05-01 09:32:00,60.0,58.0,30.14,North,355,1.0,6.0,92,0.00,,,0.00,,2013-05-01 13:32:00,
2013-05-01 09:42:00,60.0,58.0,30.14,North,355,1.0,6.0,92,0.00,,,0.00,,2013-05-01 13:42:00,
2013-05-01 09:52:00,60.0,57.0,30.14,ENE,64,1.0,7.0,91,0.00,,,0.00,,2013-05-01 13:52:00,
2013-05-01 10:02:00,60.0,57.0,30.14,NNW,348,3.0,10.0,90,0.00,,,0.00,,2013-05-01 14:02:00,
2013-05-01 10:11:00,60.0,57.0,30.14,NNW,348,3.0,10.0,90,0.00,,,0.00,,2013-05-01 14:11:00,
2013-05-01 10:22:00,60.0,57.0,30.15,East,87,2.0,6.0,89,0.00,,,0.00,,2013-05-01 14:22:00,
2013-05-01 10:32:00,60.0,57.0,30.15,North,352,1.0,9.0,89,0.00,,,0.00,,2013-05-01 14:32:00,
2013-05-01 10:42:00,60.0,57.0,30.15,North,352,1.0,9.0,89,0.00,,,0.00,,2013-05-01 14:42:00,
2013-05-01 10:52:00,60.0,57.0,30.16,NNW,330,1.0,11.0,89,0.00,,,0.00,,2013-05-01 14:52:00,
2013-05-01 11:01:00,60.0,56.0,30.16,NNW,334,2.0,10.0,88,0.00,,,0.00,,2013-05-01 15:01:00,
2013-05-01 11:11:00,60.0,56.0,30.16,NNW,334,2.0,10.0,88,0.00,,,0.00,,2013-05-01 15:11:00,
2013-05-01 11:21:00,60.0,56.0,30.16,ENE,72,4.0,15.0,87,0.00,,,0.00,,2013-05-01 15:21:00,
2013-05-01 11:33:00,60.0,56.0,30.16,East,93,1.0,13.0,87,0.00,,,0.00,,2013-05-01 15:33:00,
2013-05-01 11:43:00,60.0,56.0,30.16,East,93,1.0,13.0,87,0.00,,,0.00,,2013-05-01 15:43:00,
2013-05-01 11:53:00,60.0,56.0,30.17,NNE,32,3.0,10.0,86,0.00,,,0.00,,2013-05-01 15:53:00,
2013-05-01 12:03:00,60.0,55.0,30.17,North,360,0.0,12.0,85,0.00,,,0.00,,2013-05-01 16:03:00,
2013-05-01 12:12:00,60.0,55.0,30.17,North,360,0.0,12.0,85,0.00,,,0.00,,2013-05-01 16:12:00,
2013-05-01 12:22:00,60.0,55.0,30.18,NE,54,3.0,7.0,85,0.00,,,0.00,,2013-05-01 16:22:00,
2013-05-01 12:32:00,61.0,56.0,30.18,NNW,334,2.0,10.0,83,0.00,,,0.00,,2013-05-01 16:32:00,
2013-05-01 12:42:00,61.0,56.0,30.18,NNW,334,2.0,10.0,83,0.00,,,0.00,,2013-05-01 16:42:00,
2013-05-01 12:53:00,61.0,56.0,30.18,ENE,59,0.0,6.0,84,0.00,,,0.00,,2013-05-01 16:53:00,
2013-05-01 13:02:00,61.0,56.0,30.18,NE,50,2.0,6.0,84,0.00,,,0.00,,2013-05-01 17:02:00,
2013-05-01 13:12:00,61.0,56.0,30.18,NE,50,2.0,6.0,84,0.00,,,0.00,,2013-05-01 17:12:00,
2013-05-01 13:22:00,62.0,57.0,30.17,North,353,0.0,6.0,83,0.00,,,0.00,,2013-05-01 17:22:00,
2013-05-01 13:32:00,62.0,56.0,30.18,NNE,19,1.0,10.0,82,0.00,,,0.00,,2013-05-01 17:32:00,
2013-05-01 13:42:00,62.0,57.0,30.17,NNE,17,2.0,5.0,83,0.00,,,0.00,,2013-05-01 17:42:00,
2013-05-01 13:52:00,62.0,57.0,30.17,NNE,17,2.0,5.0,83,0.00,,,0.00,,2013-05-01 17:52:00,
2013-05-01 14:01:00,62.0,57.0,30.17,ENE,69,1.0,11.0,83,0.00,,,0.00,,2013-05-01 18:01:00,
2013-05-01 14:11:00,62.0,57.0,30.17,ENE,69,1.0,11.0,83,0.00,,,0.00,,2013-05-01 18:11:00,
2013-05-01 14:22:00,62.0,57.0,30.17,ENE,76,3.0,11.0,83,0.00,,,0.00,,2013-05-01 18:22:00,
2013-05-01 14:32:00,62.0,56.0,30.16,NE,42,6.0,12.0,82,0.00,,,0.00,,2013-05-01 18:32:00,
2013-05-01 14:42:00,62.0,56.0,30.16,NE,42,6.0,12.0,82,0.00,,,0.00,,2013-05-01 18:42:00,
2013-05-01 14:52:00,61.0,56.0,30.16,ENE,57,5.0,12.0,85,0.00,,,0.00,,2013-05-01 18:52:00,
2013-05-01 15:02:00,61.0,57.0,30.16,East,94,0.0,14.0,86,0.00,,,0.00,,2013-05-01 19:02:00,
2013-05-01 15:11:00,61.0,57.0,30.16,East,94,0.0,14.0,86,0.00,,,0.00,,2013-05-01 19:11:00,
2013-05-01 15:22:00,62.0,57.0,30.16,ENE,64,4.0,12.0,85,0.00,,,0.00,,2013-05-01 19:22:00,
2013-05-01 15:32:00,61.0,56.0,30.17,ESE,119,0.0,11.0,84,0.00,,,0.00,,2013-05-01 19:32:00,
2013-05-01 15:43:00,61.0,56.0,30.17,ESE,119,0.0,11.0,84,0.00,,,0.00,,2013-05-01 19:43:00,
2013-05-01 15:52:00,62.0,58.0,30.16,East,79,1.0,7.0,87,0.00,,,0.00,,2013-05-01 19:52:00,
2013-05-01 16:02:00,61.0,57.0,30.16,NE,41,1.0,6.0,88,0.00,,,0.00,,2013-05-01 20:02:00,
2013-05-01 16:11:00,61.0,57.0,30.16,NE,41,1.0,6.0,88,0.00,,,0.00,,2013-05-01 20:11:00,
2013-05-01 16:21:00,61.0,57.0,30.16,ENE,62,2.0,7.0,87,0.00,,,0.00,,2013-05-01 20:21:00,
2013-05-01 16:32:00,61.0,57.0,30.17,North,360,1.0,6.0,86,0.00,,,0.00,,2013-05-01 20:32:00,
2013-05-01 16:42:00,61.0,57.0,30.17,North,360,1.0,6.0,86,0.00,,,0.00,,2013-05-01 20:42:00,
2013-05-01 16:52:00,61.0,57.0,30.17,NE,43,3.0,10.0,86,0.00,,,0.00,,2013-05-01 20:52:00,
2013-05-01 17:01:00,61.0,56.0,30.18,West,280,5.0,10.0,85,0.00,,,0.00,,2013-05-01 21:01:00,
2013-05-01 17:11:00,61.0,56.0,30.18,West,280,5.0,10.0,85,0.00,,,0.00,,2013-05-01 21:11:00,
2013-05-01 17:22:00,62.0,57.0,30.17,NE,55,2.0,7.0,84,0.00,,,0.00,,2013-05-01 21:22:00,
2013-05-01 17:32:00,61.0,56.0,30.18,NE,52,2.0,7.0,83,0.00,,,0.00,,2013-05-01 21:32:00,
2013-05-01 17:43:00,61.0,57.0,30.18,NNW,330,0.0,7.0,86,0.00,,,0.00,,2013-05-01 21:43:00,
2013-05-01 17:53:00,61.0,57.0,30.18,NNW,330,0.0,7.0,86,0.00,,,0.00,,2013-05-01 21:53:00,
2013-05-01 18:03:00,61.0,57.0,30.18,ENE,72,3.0,7.0,86,0.00,,,0.00,,2013-05-01 22:03:00,
2013-05-01 18:12:00,61.0,57.0,30.18,ENE,72,3.0,7.0,86,0.00,,,0.00,,2013-05-01 22:12:00,
2013-05-01 18:23:00,61.0,57.0,30.18,NNE,26,0.0,9.0,87,0.00,,,0.00,,2013-05-01 22:23:00,
2013-05-01 18:33:00,60.0,57.0,30.17,East,88,1.0,12.0,90,0.00,,,0.00,,2013-05-01 22:33:00,
2013-05-01 18:42:00,60.0,57.0,30.17,East,88,1.0,12.0,90,0.00,,,0.00,,2013-05-01 22:42:00,
2013-05-01 18:53:00,60.0,58.0,30.17,NNE,18,0.0,5.0,92,0.00,,,0.00,,2013-05-01 22:53:00,
2013-05-01 19:02:00,59.0,57.0,30.17,East,93,3.0,10.0,92,0.00,,,0.00,,2013-05-01 23:02:00,
2013-05-01 19:12:00,59.0,57.0,30.17,East,93,3.0,10.0,92,0.00,,,0.00,,2013-05-01 23:12:00,
2013-05-01 19:21:00,59.0,57.0,30.17,NE,53,3.0,7.0,93,0.00,,,0.00,,2013-05-01 23:21:00,
2013-05-01 19:32:00,59.0,57.0,30.17,ESE,103,0.0,5.0,94,0.00,,,0.00,,2013-05-01 23:32:00,
2013-05-01 19:42:00,59.0,57.0,30.17,ESE,103,0.0,5.0,94,0.00,,,0.00,,2013-05-01 23:42:00,
2013-05-01 19:52:00,59.0,57.0,30.17,North,10,0.0,9.0,94,0.00,,,0.00,,2013-05-01 23:52:00,
2013-05-01 20:01:00,58.0,57.0,30.18,NNE,27,0.0,6.0,95,0.00,,,0.00,,2013-05-02 00:01:00,
2013-05-01 20:11:00,58.0,57.0,30.18,NNE,27,0.0,6.0,95,0.00,,,0.00,,2013-05-02 00:11:00,
2013-05-01 20:21:00,58.0,57.0,30.18,NNE,24,1.0,9.0,95,0.00,,,0.00,,2013-05-02 00:21:00,
2013-05-01 20:32:00,58.0,57.0,30.18,WNW,291,1.0,13.0,95,0.00,,,0.00,,2013-05-02 00:32:00,
2013-05-01 20:42:00,58.0,57.0,30.18,WNW,291,1.0,13.0,95,0.00,,,0.00,,2013-05-02 00:42:00,
2013-05-01 20:52:00,58.0,57.0,30.18,NE,47,1.0,6.0,95,0.00,,,0.00,,2013-05-02 00:52:00,
2013-05-01 21:01:00,59.0,58.0,30.18,ENE,68,3.0,7.0,95,0.00,,,0.00,,2013-05-02 01:01:00,
2013-05-01 21:11:00,59.0,58.0,30.18,ENE,68,3.0,7.0,95,0.00,,,0.00,,2013-05-02 01:11:00,
2013-05-01 21:22:00,59.0,57.0,30.19,ENE,63,0.0,5.0,94,0.00,,,0.00,,2013-05-02 01:22:00,
2013-05-01 21:32:00,59.0,57.0,30.19,NNE,32,2.0,10.0,94,0.00,,,0.00,,2013-05-02 01:32:00,
2013-05-01 21:42:00,59.0,57.0,30.19,NNE,32,2.0,10.0,94,0.00,,,0.00,,2013-05-02 01:42:00,
2013-05-01 21:52:00,59.0,57.0,30.20,NNE,19,2.0,7.0,93,0.00,,,0.00,,2013-05-02 01:52:00,
2013-05-01 22:02:00,59.0,57.0,30.22,NE,55,0.0,7.0,93,0.00,,,0.00,,2013-05-02 02:02:00,
2013-05-01 22:12:00,59.0,57.0,30.22,NE,55,0.0,7.0,93,0.00,,,0.00,,2013-05-02 02:12:00,
2013-05-01 22:21:00,59.0,57.0,30.22,NNE,25,0.0,12.0,92,0.00,,,0.00,,2013-05-02 02:21:00,
2013-05-01 22:32:00,59.0,57.0,30.22,ENE,78,2.0,10.0,92,0.00,,,0.00,,2013-05-02 02:32:00,
2013-05-01 22:42:00,59.0,57.0,30.22,ENE,78,2.0,10.0,92,0.00,,,0.00,,2013-05-02 02:42:00,
2013-05-01 22:51:00,59.0,57.0,30.22,ENE,78,2.0,10.0,92,0.00,,,0.00,,2013-05-02 02:51:00,
2013-05-01 23:01:00,59.0,56.0,30.23,East,101,4.0,9.0,91,0.00,,,0.00,,2013-05-02 03:01:00,
2013-05-01 23:11:00,59.0,56.0,30.23,East,101,4.0,9.0,91,0.00,,,0.00,,2013-05-02 03:11:00,
2013-05-01 23:22:00,59.0,56.0,30.22,North,10,3.0,11.0,90,0.00,,,0.00,,2013-05-02 03:22:00,
2013-05-01 23:33:00,59.0,56.0,30.22,NE,56,3.0,11.0,90,0.00,,,0.00,,2013-05-02 03:33:00,
2013-05-01 23:43:00,59.0,56.0,30.22,NE,56,3.0,11.0,90,0.00,,,0.00,,2013-05-02 03:43:00,
2013-05-01 23:53:00,59.0,56.0,30.22,SSE,161,0.0,9.0,91,0.00,,,0.00,,2013-05-02 03:53:00,